Regional Weather Roundup
Issued by NWS

Home | Current Version | Previous Version | Text Only | Print | Product List | Glossary Off
Versions: 1 2 3 4 5 6 7 8 9 10 11 12 13 14 15 16 17 18 19 20 21 22 23 24 25 26 27 28 29 30 31 32 33 34 35 36 37 38 39 40 41 42 43 44 45 46 47 48 49 50

000
ASUS43 KLMK 270002
RWRKY
KENTUCKY REGIONAL WEATHER ROUNDUP
NATIONAL WEATHER SERVICE LOUISVILLE KY
700 PM EST THU FEB 26 2015

NOTE "FAIR" INDICATES FEW OR NO CLOUDS BELOW 12,000 FEET
WITH NO SIGNIFICANT WEATHER AND/OR OBSTRUCTIONS TO VISIBILITY.

KYZ001>023-026-027-061>063-070>075-270100-
WESTERN AND SOUTH CENTRAL KENTUCKY

CITY           SKY/WX    TMP DP  RH WIND       PRES   REMARKS
PADUCAH        CLOUDY    26  16  65 N13       30.30R WCI  15
HENDERSON      CLOUDY    25  12  58 N12G17    30.29R WCI  14
OWENSBORO      CLOUDY    26  17  68 N15       30.27R WCI  14
HOPKINSVILLE   CLOUDY    28  21  74 NW13G20   30.24R WCI  18
BOWLING GREEN  CLOUDY    30  22  72 NW14G20   30.20R WCI  19
GLASGOW        NOT AVBL
$$

KYZ024-025-028>034-038-045-046-053-270100-
NORTH CENTRAL KENTUCKY

CITY           SKY/WX    TMP DP  RH WIND       PRES   REMARKS
LOUISVILLE/SDF FLURRIES  23  12  62 N13       30.24R WCI  11
LOUISVILLE/LOU CLOUDY    23  11  60 N13       30.24R WCI  11
FORT KNOX      NOT AVBL
$$

KYZ035>037-039>044-047>052-055>060-089>105-270100-
NORTHEAST KENTUCKY

CITY           SKY/WX    TMP DP  RH WIND       PRES   REMARKS
LEXINGTON      FLURRIES  26  18  71 N14       30.16R WCI  14
COVINGTON      FLURRIES  18  10  71 N12       30.21R WCI   5
FRANKFORT      LGT SNOW  24  18  77 NW8       30.17R WCI  15
$$

KYZ054-064>069-076>088-106>120-270100-
SOUTHEAST KENTUCKY

CITY           SKY/WX    TMP DP  RH WIND       PRES   REMARKS
JACKSON        CLOUDY    31  15  52 NW7       30.08R WCI  24
LONDON         PTCLDY    33  16  49 NW7       30.09R WCI  27
SOMERSET       NOT AVBL
MIDDLESBORO    NOT AVBL
MONTICELLO     CLOUDY    35  22  59 CALM      30.14R
$$



USA.gov is the U.S. government's official web portal to all federal, state and local government web resources and services.